Year,Month,Day,Hour,Minute,Value (Times are PST for temperature in C)
2020,01,16,11,05,2.80
2020,01,16,11,06,2.80
2020,01,16,11,07,2.80
2020,01,16,11,08,2.80
2020,01,16,11,09,2.80
2020,01,16,11,10,2.80
2020,01,16,11,11,2.80
2020,01,16,11,12,2.90
2020,01,16,11,13,2.90
2020,01,16,11,14,2.90
2020,01,16,11,15,2.90
2020,01,16,11,16,2.90
2020,01,16,11,17,2.90
2020,01,16,11,18,2.90
2020,01,16,11,19,2.90
2020,01,16,11,20,2.90
2020,01,16,11,21,2.90
2020,01,16,11,22,2.90
2020,01,16,11,23,2.90
2020,01,16,11,24,2.90
2020,01,16,11,25,2.90
2020,01,16,11,26,2.90
2020,01,16,11,27,2.90
2020,01,16,11,28,2.90
2020,01,16,11,29,2.90
2020,01,16,11,30,2.90
2020,01,16,11,31,2.90
2020,01,16,11,32,2.90
2020,01,16,11,33,2.90
2020,01,16,11,34,2.90
2020,01,16,11,35,3.00
2020,01,16,11,36,3.00
2020,01,16,11,37,3.00
2020,01,16,11,38,3.00
2020,01,16,11,39,3.00
2020,01,16,11,40,3.10
2020,01,16,11,41,3.10
2020,01,16,11,42,3.10
2020,01,16,11,43,3.20
2020,01,16,11,44,3.20
2020,01,16,11,45,3.20
2020,01,16,11,46,3.20
2020,01,16,11,47,3.30
2020,01,16,11,48,3.30
2020,01,16,11,49,3.30
2020,01,16,11,50,3.30
2020,01,16,11,51,3.30
2020,01,16,11,52,3.30
2020,01,16,11,53,3.30
2020,01,16,11,54,3.30
2020,01,16,11,55,3.40
2020,01,16,11,56,3.40
2020,01,16,11,57,3.40
2020,01,16,11,58,3.40
2020,01,16,11,59,3.40
2020,01,16,12,00,3.40
2020,01,16,12,01,3.50
2020,01,16,12,02,3.60
2020,01,16,12,03,3.60
2020,01,16,12,04,3.60
2020,01,16,12,05,3.60
2020,01,16,12,06,3.60
2020,01,16,12,07,3.60
2020,01,16,12,08,3.60
2020,01,16,12,09,3.60
2020,01,16,12,10,3.60
2020,01,16,12,11,3.70
2020,01,16,12,12,3.70
2020,01,16,12,13,3.80
2020,01,16,12,14,3.90
2020,01,16,12,15,4.00
2020,01,16,12,16,4.00
2020,01,16,12,17,4.10
2020,01,16,12,18,4.10
2020,01,16,12,19,4.20
2020,01,16,12,20,4.30
2020,01,16,12,21,4.30
2020,01,16,12,22,4.40
2020,01,16,12,23,4.50
2020,01,16,12,24,4.60
2020,01,16,12,25,4.60
2020,01,16,12,26,4.70
2020,01,16,12,27,4.70
2020,01,16,12,28,4.60
2020,01,16,12,29,4.60
2020,01,16,12,30,4.60
2020,01,16,12,31,4.60
2020,01,16,12,32,4.60
2020,01,16,12,33,4.60
2020,01,16,12,34,4.60
2020,01,16,12,35,4.60
2020,01,16,12,36,4.60
2020,01,16,12,37,4.60
2020,01,16,12,38,4.60
2020,01,16,12,39,4.60
2020,01,16,12,40,4.60
2020,01,16,12,41,4.50
2020,01,16,12,42,4.60
2020,01,16,12,43,4.50
2020,01,16,12,44,4.60
2020,01,16,12,45,4.60
2020,01,16,12,46,4.60
2020,01,16,12,47,4.70
2020,01,16,12,48,4.70
2020,01,16,12,49,4.70
2020,01,16,12,50,4.70
2020,01,16,12,51,4.80
2020,01,16,12,52,4.80
2020,01,16,12,53,4.80
2020,01,16,12,54,4.90
2020,01,16,12,55,4.90
2020,01,16,12,56,5.00
2020,01,16,12,57,5.10
2020,01,16,12,58,5.10
2020,01,16,12,59,5.10
2020,01,16,13,00,5.10
2020,01,16,13,01,5.20
2020,01,16,13,02,5.20
2020,01,16,13,03,5.30
2020,01,16,13,04,5.30
2020,01,16,13,05,5.30
2020,01,16,13,06,5.30
2020,01,16,13,07,5.30
2020,01,16,13,08,5.30
2020,01,16,13,09,5.30
2020,01,16,13,10,5.30
2020,01,16,13,11,5.30
2020,01,16,13,12,5.30
2020,01,16,13,13,5.30
2020,01,16,13,14,5.30
2020,01,16,13,15,5.30
2020,01,16,13,16,5.30
2020,01,16,13,17,5.30
2020,01,16,13,18,5.30
2020,01,16,13,19,5.30
2020,01,16,13,20,5.30
2020,01,16,13,21,5.30
2020,01,16,13,22,5.30
2020,01,16,13,23,5.30
2020,01,16,13,24,5.30
2020,01,16,13,25,5.30
2020,01,16,13,26,5.30
2020,01,16,13,27,5.40
2020,01,16,13,28,5.40
2020,01,16,13,29,5.30
2020,01,16,13,30,5.30
2020,01,16,13,31,5.30
2020,01,16,13,32,5.30
2020,01,16,13,33,5.30
2020,01,16,13,34,5.30
2020,01,16,13,35,5.30
2020,01,16,13,36,5.20
2020,01,16,13,37,5.20
2020,01,16,13,38,5.20
2020,01,16,13,39,5.20
2020,01,16,13,40,5.10
2020,01,16,13,41,5.10
2020,01,16,13,42,5.10
2020,01,16,13,43,5.00
2020,01,16,13,44,5.00
2020,01,16,13,45,4.90
2020,01,16,13,46,4.90
2020,01,16,13,47,4.90
2020,01,16,13,48,4.90
2020,01,16,13,49,4.90
2020,01,16,13,50,4.80
2020,01,16,13,51,4.80
2020,01,16,13,52,4.70
2020,01,16,13,53,4.70
2020,01,16,13,54,4.70
2020,01,16,13,55,4.70
2020,01,16,13,56,4.70
2020,01,16,13,57,4.70
2020,01,16,13,58,4.70
2020,01,16,13,59,4.70
2020,01,16,14,00,4.70
2020,01,16,14,01,4.70
2020,01,16,14,02,4.70
2020,01,16,14,03,4.70
2020,01,16,14,04,4.80
2020,01,16,14,05,4.80
2020,01,16,14,06,4.80
2020,01,16,14,07,4.80
2020,01,16,14,08,4.70
2020,01,16,14,09,4.70
2020,01,16,14,10,4.70
2020,01,16,14,11,4.70
2020,01,16,14,12,4.70
2020,01,16,14,13,4.70
2020,01,16,14,14,4.70
2020,01,16,14,15,4.70
2020,01,16,14,16,4.70
2020,01,16,14,17,4.60
2020,01,16,14,18,4.60
2020,01,16,14,19,4.60
2020,01,16,14,20,4.60
2020,01,16,14,21,4.60
2020,01,16,14,22,4.60
2020,01,16,14,23,4.60
2020,01,16,14,24,4.60
2020,01,16,14,25,4.60
2020,01,16,14,26,4.60
2020,01,16,14,27,4.60
2020,01,16,14,28,4.60
2020,01,16,14,29,4.60
2020,01,16,14,30,4.60
2020,01,16,14,31,4.50
2020,01,16,14,32,4.50
2020,01,16,14,33,4.50
2020,01,16,14,34,4.50
2020,01,16,14,35,4.50
2020,01,16,14,36,4.50
2020,01,16,14,37,4.50
2020,01,16,14,38,4.50
2020,01,16,14,39,4.50
2020,01,16,14,40,4.50
2020,01,16,14,41,4.50
2020,01,16,14,42,4.50
2020,01,16,14,43,4.40
2020,01,16,14,44,4.40
2020,01,16,14,45,4.40
2020,01,16,14,46,4.30
2020,01,16,14,47,4.30
2020,01,16,14,48,4.30
2020,01,16,14,49,4.30
2020,01,16,14,50,4.30
2020,01,16,14,51,4.30
2020,01,16,14,52,4.20
2020,01,16,14,53,4.20
2020,01,16,14,54,4.20
2020,01,16,14,55,4.20
2020,01,16,14,56,4.10
2020,01,16,14,57,4.10
2020,01,16,14,58,4.10
2020,01,16,14,59,4.00
2020,01,16,15,00,4.00
2020,01,16,15,01,4.00
2020,01,16,15,02,3.90
2020,01,16,15,03,3.90
2020,01,16,15,04,3.90
2020,01,16,15,05,3.90
2020,01,16,15,06,3.90
2020,01,16,15,07,3.90
2020,01,16,15,08,3.90
2020,01,16,15,09,3.90
2020,01,16,15,10,3.90
2020,01,16,15,11,3.90
2020,01,16,15,12,3.90
2020,01,16,15,13,3.90
2020,01,16,15,14,3.90
2020,01,16,15,15,3.90
2020,01,16,15,16,3.90
2020,01,16,15,17,3.90
2020,01,16,15,18,3.90
2020,01,16,15,19,3.90
2020,01,16,15,20,3.90
2020,01,16,15,21,3.90
2020,01,16,15,22,3.90
2020,01,16,15,23,3.90
2020,01,16,15,24,3.90
2020,01,16,15,25,3.90
2020,01,16,15,26,3.90
2020,01,16,15,27,3.90
2020,01,16,15,28,3.80
2020,01,16,15,29,3.80
2020,01,16,15,30,3.80
2020,01,16,15,31,3.80
2020,01,16,15,32,3.80
2020,01,16,15,33,3.90
2020,01,16,15,34,3.80
2020,01,16,15,35,3.90
2020,01,16,15,36,3.90
2020,01,16,15,37,3.80
2020,01,16,15,38,3.80
2020,01,16,15,39,3.80
2020,01,16,15,40,3.80
2020,01,16,15,41,3.80
2020,01,16,15,42,3.80
2020,01,16,15,43,3.80
2020,01,16,15,44,3.80
2020,01,16,15,45,3.80
2020,01,16,15,46,3.80
2020,01,16,15,47,3.80
2020,01,16,15,48,3.80
2020,01,16,15,49,3.80
2020,01,16,15,50,3.70
2020,01,16,15,51,3.70
2020,01,16,15,52,3.70
2020,01,16,15,53,3.70
2020,01,16,15,54,3.70
2020,01,16,15,55,3.70
2020,01,16,15,56,3.70
2020,01,16,15,57,3.70
2020,01,16,15,58,3.70
2020,01,16,15,59,3.70
2020,01,16,16,00,3.70
2020,01,16,16,01,3.70
2020,01,16,16,02,3.70
2020,01,16,16,03,3.70
2020,01,16,16,04,3.60
2020,01,16,16,05,3.70
2020,01,16,16,06,3.60
2020,01,16,16,07,3.60
2020,01,16,16,08,3.60
2020,01,16,16,09,3.60
2020,01,16,16,10,3.50
2020,01,16,16,11,3.50
2020,01,16,16,12,3.40
2020,01,16,16,13,3.40
2020,01,16,16,14,3.40
2020,01,16,16,15,3.40
2020,01,16,16,16,3.30
2020,01,16,16,17,3.30
2020,01,16,16,18,3.30
2020,01,16,16,19,3.20
2020,01,16,16,20,3.20
2020,01,16,16,21,3.10
2020,01,16,16,22,3.10
2020,01,16,16,23,3.10
2020,01,16,16,24,3.10
2020,01,16,16,25,3.10
2020,01,16,16,26,3.10
2020,01,16,16,27,3.10
2020,01,16,16,28,3.10
2020,01,16,16,29,3.10
2020,01,16,16,30,3.10
2020,01,16,16,31,3.10
